Date String (YYYY-MM-DD hh:mm:ss) UTC,Instrument flags,Ambient pressure (hPa),Sample flow (lpm),Bypass flow (lpm),Sample temperature (°C),Ambient temperature (°C),ASC tube jacket temperature (°C),LED temperature (°C),Box temperature (°C),Sample RH (%),Span deviation,Mass concentration (μg/m³),Mass concentration (μg/m³),Mass concentration (μg/m³)
DateTimeUTC,F1_M11,P_M11,Q1_M11,Q2_M11,T1_M11,T2_M11,T3_M11,T4_M11,T5_M11,U1_M11,ZSPAN_M11,X0_M11,X2_M11,X1_M11
2023-05-04 13:00:00,,0825.0,5.00,0.00,28.4,27.1,00.0,36.8,30.0,13.0,0000.0,0013.56,0004.97,0003.39
2023-05-04 13:01:00,,0825.0,5.01,0.00,28.5,27.1,00.0,36.8,30.0,13.0,0000.0,0014.48,0004.93,0003.39
2023-05-04 13:02:00,,0825.0,5.01,0.00,28.5,27.1,00.0,36.8,30.1,14.3,0000.0,0015.17,0004.93,0003.39
2023-05-04 13:03:00,,0825.1,5.00,0.00,28.5,27.1,00.0,36.8,30.0,14.8,0000.0,0015.47,0004.99,0003.39
2023-05-04 13:04:00,,0825.1,5.01,0.00,28.5,27.1,00.0,36.8,30.0,14.4,0000.0,0014.90,0004.98,0003.40
2023-05-04 13:05:00,,0825.1,4.99,0.00,28.5,27.1,00.0,36.8,30.0,13.8,0000.0,0014.72,0004.94,0003.39
2023-05-04 13:06:00,,0825.1,5.00,0.00,28.5,27.1,00.0,36.8,30.0,13.4,0000.0,0014.64,0004.88,0003.37
2023-05-04 13:07:00,,0825.1,4.99,0.00,28.5,27.1,00.0,36.8,30.0,13.2,0000.0,0014.23,0004.85,0003.35
2023-05-04 13:08:00,,0825.1,4.99,0.00,28.5,27.1,00.0,36.8,30.0,13.1,0000.0,0013.72,0004.85,0003.34
2023-05-04 13:09:00,,0825.1,5.00,0.00,28.5,27.1,00.0,36.8,30.0,13.1,0000.0,0013.78,0004.81,0003.33
2023-05-04 13:10:00,,0825.1,4.99,0.00,28.6,27.1,00.0,36.8,30.1,13.2,0000.0,0013.66,0004.81,0003.32
2023-05-04 13:11:00,,0825.1,5.00,0.00,28.6,27.1,00.0,36.9,30.1,13.2,0000.0,0013.48,0004.88,0003.32
2023-05-04 13:12:00,,0825.1,5.00,0.00,28.6,27.1,00.0,36.9,30.0,13.1,0000.0,0012.53,0004.95,0003.32
2023-05-04 13:13:00,,0825.1,5.00,0.00,28.6,27.2,00.0,36.9,30.1,13.2,0000.0,0011.81,0004.91,0003.32
2023-05-04 13:14:00,,0825.1,5.00,0.00,28.6,27.2,00.0,36.9,30.1,13.5,0000.0,0011.78,0004.85,0003.32
2023-05-04 13:15:00,,0825.1,5.00,0.00,28.6,27.2,00.0,36.9,30.1,13.6,0000.0,0011.61,0004.90,0003.32
2023-05-04 13:16:00,,0825.2,5.00,0.00,28.6,27.2,00.0,36.9,30.1,13.6,0000.0,0012.10,0004.90,0003.32
2023-05-04 13:17:00,,0825.2,4.99,0.00,28.6,27.2,00.0,36.9,30.1,14.2,0000.0,0012.53,0004.94,0003.34
2023-05-04 13:18:00,,0825.2,4.99,0.00,28.6,27.2,00.0,36.9,30.1,14.8,0000.0,0012.48,0004.95,0003.35
2023-05-04 13:19:00,,0825.2,5.00,0.00,28.7,27.2,00.0,36.9,30.1,14.1,0000.0,0012.66,0004.92,0003.36
2023-05-04 13:20:00,,0825.2,5.00,0.00,28.7,27.2,00.0,37.0,30.2,13.7,0000.0,0013.74,0004.92,0003.35
2023-05-04 13:21:00,,0825.2,5.00,0.00,28.7,27.2,00.0,37.0,30.2,13.6,0000.0,0015.06,0004.94,0003.34
2023-05-04 13:22:00,,0825.2,5.00,0.00,28.7,27.2,00.0,37.0,30.2,13.6,0000.0,0014.83,0004.88,0003.33
2023-05-04 13:23:00,,0825.3,5.01,0.00,28.7,27.2,00.0,37.0,30.2,13.5,0000.0,0014.64,0004.76,0003.30
2023-05-04 13:24:00,,0825.3,5.00,0.00,28.7,27.3,00.0,37.0,30.2,13.6,0000.0,0014.73,0004.75,0003.30
2023-05-04 13:25:00,,0825.3,5.00,0.00,28.7,27.3,00.0,37.0,30.2,13.5,0000.0,0014.33,0004.78,0003.30
2023-05-04 13:26:00,,0825.4,5.00,0.00,28.7,27.3,00.0,37.0,30.2,13.4,0000.0,0014.79,0004.72,0003.28
2023-05-04 13:27:00,,0825.4,5.00,0.00,28.7,27.3,00.0,37.0,30.2,13.8,0000.0,0014.87,0004.70,0003.27
2023-05-04 13:28:00,,0825.4,4.99,0.00,28.7,27.3,00.0,37.0,30.3,14.4,0000.0,0014.12,0004.69,0003.26
2023-05-04 13:29:00,,0825.4,5.01,0.00,28.7,27.3,00.0,37.0,30.3,13.9,0000.0,0014.14,0004.71,0003.25
2023-05-04 13:30:00,,0825.5,5.01,0.00,28.7,27.3,00.0,37.0,30.3,14.4,0000.0,0013.94,0004.67,0003.25
2023-05-04 13:31:00,,0825.5,5.00,0.00,28.7,27.2,00.0,37.1,30.3,14.4,0000.0,0013.26,0004.75,0003.26
2023-05-04 13:32:00,,0825.5,4.99,0.00,28.7,27.2,00.0,37.0,30.3,14.2,0000.0,0011.63,0004.71,0003.26
2023-05-04 13:33:00,,0825.6,5.00,0.00,28.7,27.1,00.0,37.0,30.2,14.3,0000.0,0011.97,0004.75,0003.26
2023-05-04 13:34:00,,0825.5,4.99,0.00,28.7,27.0,00.0,37.0,30.2,14.2,0000.0,0012.22,0004.75,0003.27
2023-05-04 13:35:00,,0825.5,5.00,0.00,28.6,27.0,00.0,37.0,30.1,14.1,0000.0,0012.28,0004.74,0003.25
2023-05-04 13:36:00,,0825.5,5.00,0.00,28.6,26.9,00.0,37.0,30.1,14.2,0000.0,0012.20,0004.75,0003.25
2023-05-04 13:37:00,,0825.3,5.00,0.00,28.6,26.9,00.0,37.0,30.1,14.4,0000.0,0012.85,0004.79,0003.26
2023-05-04 13:38:00,,0825.3,5.00,0.00,28.6,26.9,00.0,37.0,30.1,14.3,0000.0,0014.19,0004.83,0003.26
2023-05-04 13:39:00,,0825.5,5.01,0.00,28.6,26.9,00.0,37.0,30.2,14.6,0000.0,0014.68,0004.90,0003.28
2023-05-04 13:40:00,,0825.5,4.99,0.00,28.6,26.9,00.0,37.0,30.2,14.8,0000.0,0015.26,0004.93,0003.28
2023-05-04 13:41:00,,0825.4,4.99,0.00,28.6,26.9,00.0,37.0,30.2,15.0,0000.0,0015.88,0004.95,0003.28
2023-05-04 13:42:00,,0825.4,5.00,0.00,28.6,26.9,00.0,37.0,30.2,14.9,0000.0,0015.49,0004.91,0003.28
2023-05-04 13:43:00,,0825.5,5.00,0.00,28.6,26.9,00.0,37.0,30.2,15.0,0000.0,0015.52,0004.96,0003.29
2023-05-04 13:44:00,,0825.6,5.01,0.00,28.6,26.9,00.0,37.0,30.1,15.1,0000.0,0014.92,0004.94,0003.30
2023-05-04 13:45:00,,0825.8,5.00,0.00,28.5,26.9,00.0,37.0,30.0,15.3,0000.0,0014.71,0004.98,0003.29
2023-05-04 13:46:00,,0825.7,5.00,0.00,28.5,26.8,00.0,37.0,30.0,15.8,0000.0,0015.21,0005.03,0003.29
2023-05-04 13:47:00,,0825.7,5.00,0.00,28.5,26.8,00.0,36.9,30.0,15.7,0000.0,0017.40,0005.03,0003.29
2023-05-04 13:48:00,,0825.9,5.00,0.00,28.5,26.7,00.0,36.9,30.0,16.1,0000.0,0016.82,0005.03,0003.28
2023-05-04 13:49:00,,0825.9,5.01,0.00,28.4,26.7,00.0,36.9,30.0,16.3,0000.0,0015.48,0005.03,0003.28
2023-05-04 13:50:00,,0826.1,5.00,0.00,28.4,26.7,00.0,36.9,29.9,16.5,0000.0,0016.16,0005.06,0003.28
2023-05-04 13:51:00,,0826.2,5.00,0.00,28.4,26.6,00.0,36.9,29.8,16.4,0000.0,0015.95,0005.05,0003.28
2023-05-04 13:52:00,,0826.1,5.01,0.00,28.3,26.5,00.0,36.8,29.7,16.6,0000.0,0015.52,0005.06,0003.29
2023-05-04 13:53:00,,0826.1,5.01,0.00,28.2,26.4,00.0,36.8,29.6,16.9,0000.0,0015.76,0005.09,0003.30
2023-05-04 13:54:00,,0826.0,5.00,0.00,28.2,26.4,00.0,36.8,29.6,17.1,0000.0,0016.40,0005.08,0003.31
2023-05-04 13:55:00,,0825.9,5.00,0.00,28.2,26.3,00.0,36.8,29.6,17.5,0000.0,0017.13,0005.11,0003.31
2023-05-04 13:56:00,,0826.0,4.99,0.00,28.1,26.3,00.0,36.8,29.5,17.9,0000.0,0018.58,0005.13,0003.32
2023-05-04 13:57:00,,0826.1,5.00,0.00,28.1,26.3,00.0,36.7,29.5,18.0,0000.0,0019.29,0005.14,0003.35
2023-05-04 13:58:00,,0826.2,4.99,0.00,28.1,26.2,00.0,36.7,29.5,18.1,0000.0,0017.28,0005.18,0003.38
2023-05-04 13:59:00,,0826.2,5.00,0.00,28.0,26.2,00.0,36.7,29.5,18.5,0000.0,0017.29,0005.23,0003.40
